EW2590 Weather Reports


Display with metric or nautical units.
time (UTC)temp
F
wind
direction
speed
MPH
gust
MPH
rain 1hr
in
rain 24hr
in
rain mn
in
humidity
%
barometer
mb
20260510015830 53 345 0.0 0.0 0.00 0.25 0.25 85
20260510015330 53 31 0.0 0.0 0.00 0.25 0.25 84
20260510014830 53 54 0.0 0.0 0.00 0.25 0.25 84
20260510014350 53 108 0.0 0.0 0.00 0.25 0.25 84
20260510013849 53 95 0.0 0.0 0.00 0.25 0.25 83
20260510013327 54 122 0.0 0.0 0.00 0.25 0.25 83
20260510012848 54 140 0.0 2.0 0.00 0.25 0.25 83
20260510012326 54 140 0.0 6.0 0.00 0.25 0.25 83
20260510011826 54 160 0.0 4.0 0.00 0.25 0.25 82
20260510011324 54 182 1.0 4.0 0.00 0.25 0.25 82
20260510010825 54 122 0.0 3.0 0.00 0.25 0.25 82
20260510010344 54 127 0.0 1.0 0.00 0.25 0.25 81
20260510005844 54 127 0.0 3.0 0.00 0.25 0.25 81
20260510005325 54 127 0.0 8.0 0.00 0.25 0.25 81
20260510004846 55 129 3.0 8.0 0.00 0.25 0.25 81
20260510004325 55 120 2.0 5.0 0.00 0.25 0.25 81
20260510003844 55 150 0.0 3.0 0.00 0.25 0.25 81
20260510003323 55 152 0.0 6.0 0.00 0.25 0.25 81
20260510002824 55 127 2.0 6.0 0.00 0.25 0.25 81
20260510002325 55 168 2.0 7.0 0.00 0.25 0.25 81
20260510001824 55 167 1.0 7.0 0.00 0.25 0.25 81
20260510001324 55 171 2.0 7.0 0.00 0.25 0.25 82
20260510000823 55 75 3.0 7.0 0.00 0.25 0.25 82
20260510000323 55 125 0.0 0.0 0.00 0.25 0.25 82
20260509235824 55 179 0.0 0.0 0.00 0.25 0.25 82
20260509235324 55 116 0.0 0.0 0.00 0.25 0.25 82
20260509234823 55 139 0.0 0.0 0.00 0.25 0.25 82
20260509234320 55 142 0.0 0.0 0.00 0.25 0.25 82
20260509233821 55 124 0.0 0.0 0.00 0.25 0.25 82
20260509233321 55 112 0.0 0.0 0.00 0.25 0.25 81
20260509232842 55 111 0.0 2.0 0.00 0.25 0.25 82
20260509232342 55 129 0.0 8.0 0.00 0.25 0.25 81
20260509231821 55 130 3.0 8.0 0.00 0.25 0.25 81
20260509231322 55 224 4.0 8.0 0.00 0.25 0.25 81
20260509230822 55 226 0.0 9.0 0.00 0.25 0.25 81
20260509230320 55 133 2.0 9.0 0.00 0.25 0.25 81
20260509225840 55 103 2.0 8.0 0.00 0.25 0.25 81
20260509225319 55 152 3.0 9.0 0.00 0.25 0.25 81
20260509224820 55 148 4.0 11.0 0.00 0.25 0.25 81
20260509224318 55 192 2.0 12.0 0.00 0.25 0.25 81
20260509223818 55 145 6.0 12.0 0.00 0.25 0.25 81
20260509223318 55 131 5.0 7.0 0.00 0.25 0.25 81
20260509222816 55 127 4.0 9.0 0.00 0.25 0.25 81
20260509222316 55 137 5.0 10.0 0.00 0.25 0.25 81
20260509221815 55 155 5.0 11.0 0.00 0.25 0.25 81
20260509221314 55 182 4.0 10.0 0.00 0.25 0.25 81
20260509220828 55 165 3.0 10.0 0.00 0.25 0.25 81
20260509220329 55 90 5.0 10.0 0.00 0.25 0.25 82
20260509215814 55 156 0.0 8.0 0.00 0.25 0.25 82
20260509215328 55 175 3.0 10.0 0.00 0.25 0.25 82
20260509214848 55 48 5.0 10.0 0.00 0.25 0.25 82
20260509214327 55 207 6.0 10.0 0.00 0.25 0.25 82
20260509213826 55 121 3.0 11.0 0.00 0.25 0.25 82
20260509213347 55 167 4.0 14.0 0.00 0.25 0.25 82
20260509212823 54 195 5.0 14.0 0.00 0.25 0.25 82
20260509212343 55 118 6.0 15.0 0.00 0.25 0.25 82
20260509211823 55 149 8.0 15.0 0.00 0.25 0.25 82
20260509211323 55 120 7.0 15.0 0.00 0.25 0.25 82
20260509210822 55 154 3.0 11.0 0.00 0.25 0.25 82
20260509210321 55 170 5.0 10.0 0.00 0.25 0.25 82
20260509205842 55 145 2.0 8.0 0.00 0.25 0.25 82
20260509205320 55 217 3.0 10.0 0.00 0.25 0.25 82
20260509204820 55 161 3.0 11.0 0.00 0.25 0.25 82
20260509204321 55 140 5.0 11.0 0.00 0.25 0.25 81
20260509203821 55 141 1.0 9.0 0.00 0.25 0.25 82
20260509203320 55 135 4.0 9.0 0.00 0.25 0.25 82
20260509202821 54 137 4.0 14.0 0.00 0.25 0.25 83
20260509202321 54 124 6.0 14.0 0.00 0.25 0.25 83
20260509201822 54 147 5.0 12.0 0.00 0.25 0.25 84
20260509201320 54 126 6.0 12.0 0.00 0.25 0.25 84
20260509200821 53 141 6.0 12.0 0.00 0.25 0.25 85
20260509200341 53 97 4.0 9.0 0.00 0.25 0.25 85
20260509195819 53 143 3.0 10.0 0.00 0.25 0.25 85
20260509195320 53 185 3.0 10.0 0.00 0.25 0.25 85
20260509194819 53 112 5.0 11.0 0.00 0.25 0.25 85
20260509194318 53 149 4.0 13.0 0.00 0.25 0.25 85
20260509193816 53 90 7.0 13.0 0.00 0.25 0.25 85
20260509193318 53 147 6.0 13.0 0.00 0.25 0.25 85
20260509192815 53 151 4.0 16.0 0.00 0.25 0.25 85
20260509192333 53 152 8.0 16.0 0.00 0.25 0.25 85
20260509191854 53 133 7.0 16.0 0.00 0.25 0.25 85
20260509191332 53 116 7.0 16.0 0.00 0.25 0.25 85
20260509190832 53 144 6.0 13.0 0.00 0.25 0.25 85
20260509190330 53 145 5.0 13.0 0.00 0.25 0.25 85
20260509185832 53 42 7.0 14.0 0.00 0.25 0.25 85
20260509185352 53 162 4.0 11.0 0.00 0.25 0.25 85
20260509184831 53 149 5.0 12.0 0.00 0.25 0.25 85
20260509184351 53 134 7.0 17.0 0.00 0.25 0.25 85
20260509183831 53 121 5.0 17.0 0.00 0.25 0.25 85
20260509183330 53 166 5.0 9.0 0.00 0.25 0.25 85
20260509182830 53 112 3.0 11.0 0.00 0.25 0.25 85
20260509182330 53 87 6.0 12.0 0.00 0.25 0.25 85
20260509181829 53 143 4.0 11.0 0.00 0.25 0.25 85
20260509181348 53 153 2.0 8.0 0.00 0.25 0.25 86
20260509180827 53 203 2.0 8.0 0.00 0.25 0.25 85
20260509180329 53 100 1.0 7.0 0.00 0.25 0.25 86
20260509175827 53 180 1.0 7.0 0.00 0.25 0.25 86
20260509175326 53 143 0.0 5.0 0.00 0.25 0.25 87
20260509174845 53 172 0.0 5.0 0.00 0.25 0.25 87
20260509174326 53 120 0.0 5.0 0.00 0.25 0.25 88
20260509173848 53 120 0.0 10.0 0.00 0.25 0.25 88
20260509173326 52 131 2.0 10.0 0.00 0.25 0.25 88
20260509172825 52 131 0.0 6.0 0.00 0.25 0.25 88
20260509172324 52 135 0.0 8.0 0.00 0.25 0.25 88
20260509171825 52 129 4.0 9.0 0.01 0.25 0.25 88
20260509171327 52 133 3.0 11.0 0.01 0.25 0.25 89
20260509170827 52 100 3.0 9.0 0.01 0.25 0.25 89
20260509170327 52 116 4.0 11.0 0.01 0.25 0.25 90
20260509165828 51 119 6.0 11.0 0.01 0.25 0.25 90
20260509165327 51 114 5.0 11.0 0.02 0.25 0.25 90
20260509164842 51 110 4.0 13.0 0.02 0.25 0.25 91
20260509164323 51 117 5.0 13.0 0.02 0.25 0.25 91
20260509163842 51 58 3.0 8.0 0.03 0.25 0.25 91
20260509163322 51 118 5.0 12.0 0.03 0.25 0.25 92
20260509162822 51 81 4.0 10.0 0.04 0.28 0.25 92
20260509162321 51 156 4.0 13.0 0.04 0.28 0.25 92
20260509161821 51 112 2.0 7.0 0.04 0.27 0.24 93
20260509161319 51 127 0.0 0.0 0.04 0.27 0.24 93
20260509160820 51 127 0.0 1.0 0.04 0.27 0.24 93
20260509160320 50 129 0.0 3.0 0.05 0.27 0.24 93
20260509155819 50 66 0.0 3.0 0.06 0.27 0.24 94
20260509155318 50 110 0.0 0.0 0.05 0.26 0.23 94
20260509154817 50 110 0.0 0.0 0.05 0.26 0.23 93
20260509154318 50 30 0.0 0.0 0.05 0.26 0.23 94
20260509153816 50 27 0.0 0.0 0.05 0.25 0.22 94
20260509153316 50 27 0.0 0.0 0.05 0.25 0.22 94
20260509152815 50 27 0.0 0.0 0.04 0.28 0.21 94
20260509152314 50 27 0.0 0.0 0.04 0.28 0.21 95
20260509151814 50 27 0.0 0.0 0.04 0.27 0.20 95
20260509151333 50 27 0.0 0.0 0.04 0.27 0.20 95
20260509150833 49 27 0.0 0.0 0.03 0.26 0.19 95
20260509150353 49 27 0.0 0.0 0.04 0.26 0.19 94
20260509145850 49 39 0.0 0.0 0.03 0.25 0.18 95
20260509145329 49 41 0.0 0.0 0.03 0.25 0.18 95
20260509144828 48 41 0.0 0.0 0.04 0.25 0.18 95
20260509144327 48 68 0.0 0.0 0.04 0.25 0.18 95
20260509143826 48 68 0.0 0.0 0.03 0.24 0.17 95
20260509143346 48 71 0.0 0.0 0.03 0.24 0.17 95
20260509142824 47 73 0.0 0.0 0.04 0.25 0.17 95
20260509142322 47 73 0.0 0.0 0.03 0.24 0.16 95
20260509141821 46 73 0.0 0.0 0.03 0.24 0.16 95
20260509141320 46 73 0.0 0.0 0.03 0.24 0.16 95
20260509140819 46 73 0.0 0.0 0.03 0.24 0.16 94
20260509140338 45 73 0.0 0.0 0.02 0.23 0.15 95
20260509135815 45 76 0.0 0.0 0.03 0.23 0.15 95
20260509135335 45 77 0.0 0.0 0.03 0.23 0.15 95
20260509134814 45 76 0.0 0.0 0.02 0.22 0.14 95
20260509134333 44 77 0.0 0.0 0.02 0.22 0.14 95
20260509133832 44 77 0.0 0.0 0.02 0.22 0.14 95
20260509133331 44 77 0.0 0.0 0.03 0.22 0.14 94
20260509132832 43 77 0.0 0.0 0.02 0.21 0.13 94
20260509132333 43 77 0.0 0.0 0.03 0.21 0.13 94
20260509131813 43 77 0.0 0.0 0.04 0.21 0.13 94
20260509131332 43 77 0.0 0.0 0.05 0.21 0.13 94
20260509130833 43 77 0.0 0.0 0.05 0.21 0.13 94
20260509130354 42 77 0.0 0.0 0.06 0.21 0.13 94
20260509125834 42 77 0.0 0.0 0.06 0.20 0.12 94
20260509125354 42 77 0.0 0.0 0.06 0.20 0.12 94
20260509124832 42 77 0.0 0.0 0.06 0.20 0.12 94
20260509124333 42 77 0.0 0.0 0.06 0.20 0.12 94
20260509123832 42 77 0.0 0.0 0.07 0.20 0.12 94
20260509123331 41 77 0.0 0.0 0.06 0.19 0.11 94
20260509122832 41 76 0.0 0.0 0.06 0.19 0.11 93
20260509122322 41 76 0.0 0.0 0.06 0.18 0.10 93
20260509121821 41 76 0.0 0.0 0.05 0.17 0.09 93
20260509121320 41 76 0.0 0.0 0.04 0.16 0.08 94
20260509120819 41 76 0.0 0.0 0.04 0.16 0.08 93
20260509120318 41 76 0.0 0.0 0.03 0.15 0.07 93
20260509115819 41 76 0.0 0.0 0.02 0.14 0.06 94
20260509115319 41 76 0.0 0.0 0.02 0.14 0.06 93
20260509114818 41 76 0.0 0.0 0.02 0.14 0.06 93
20260509114318 40 76 0.0 0.0 0.01 0.13 0.05 93
20260509113817 40 76 0.0 0.0 0.01 0.13 0.05 93
20260509113317 40 76 0.0 0.0 0.01 0.13 0.05 93
20260509112836 40 76 0.0 0.0 0.01 0.13 0.05 93
20260509112316 40 76 0.0 0.0 0.00 0.12 0.04 93
20260509111817 40 76 0.0 0.0 0.00 0.12 0.04 93
20260509111318 40 76 0.0 0.0 0.00 0.12 0.04 93
20260509110818 39 76 0.0 0.0 0.00 0.12 0.04 93
20260509110317 39 76 0.0 0.0 0.00 0.12 0.04 93
20260509105837 39 76 0.0 3.0 0.00 0.12 0.04 93
20260509105316 39 77 0.0 3.0 0.00 0.12 0.04 93
20260509104832 39 33 0.0 0.0 0.00 0.12 0.04 93
20260509104330 39 33 0.0 0.0 0.00 0.12 0.04 92
20260509103828 39 32 0.0 0.0 0.00 0.12 0.04 93
20260509103327 39 31 0.0 0.0 0.00 0.12 0.04 92
20260509102827 39 31 0.0 0.0 0.00 0.12 0.04 92
20260509102328 39 49 0.0 0.0 0.00 0.12 0.04 92
20260509101829 39 52 0.0 0.0 0.00 0.12 0.04 92
20260509101327 39 51 0.0 0.0 0.00 0.12 0.04 92
20260509100826 39 53 0.0 0.0 0.00 0.12 0.04 92
20260509100326 39 52 0.0 0.0 0.00 0.12 0.04 92
20260509095827 39 63 0.0 0.0 0.00 0.12 0.04 91
20260509095327 39 62 0.0 0.0 0.00 0.12 0.04 92
20260509094827 39 56 0.0 0.0 0.00 0.12 0.04 92
20260509094325 39 56 0.0 0.0 0.01 0.12 0.04 91
20260509093825 39 56 0.0 0.0 0.01 0.12 0.04 91
20260509093324 38 56 0.0 0.0 0.01 0.12 0.04 91
20260509092824 38 56 0.0 0.0 0.01 0.12 0.04 91
20260509092324 38 56 0.0 3.0 0.01 0.12 0.04 91
20260509091845 38 56 0.0 3.0 0.01 0.12 0.04 91
20260509091323 38 75 0.0 0.0 0.01 0.12 0.04 90
20260509090824 38 75 0.0 0.0 0.02 0.12 0.04 90
20260509090325 38 75 0.0 0.0 0.02 0.12 0.04 90
20260509085824 38 75 0.0 0.0 0.02 0.12 0.04 90
20260509085323 38 75 0.0 3.0 0.02 0.12 0.04 90
20260509084822 38 75 0.0 3.0 0.03 0.12 0.04 90
20260509084321 38 72 0.0 0.0 0.02 0.11 0.03 89
20260509083841 38 72 0.0 0.0 0.02 0.11 0.03 89
20260509083319 38 72 0.0 0.0 0.03 0.11 0.03 89
20260509082819 38 72 0.0 0.0 0.03 0.11 0.03 89
20260509082319 38 70 0.0 2.0 0.03 0.11 0.03 88
20260509081830 38 70 1.0 2.0 0.03 0.11 0.03 88
20260509081328 38 71 0.0 3.0 0.03 0.11 0.03 88
20260509080829 38 71 0.0 4.0 0.02 0.10 0.02 88
20260509080328 38 79 1.0 4.0 0.02 0.10 0.02 87
20260509075848 38 45 1.0 3.0 0.02 0.10 0.02 87
20260509075345 38 15 0.0 3.0 0.02 0.10 0.02 87
20260509074824 38 4 0.0 4.0 0.01 0.09 0.01 86
20260509074325 38 4 1.0 4.0 0.01 0.09 0.01 86
20260509073825 38 52 0.0 4.0 0.00 0.08 0.00 86
20260509073324 38 71 0.0 5.0 0.00 0.08 0.00 86
20260509072823 38 79 1.0 5.0 0.00 0.08 0.00 86
20260509072325 38 25 0.0 0.0 0.00 0.08 0.00 85
20260509071828 38 31 0.0 0.0 0.00 0.08 0.00 85
20260509071326 39 39 0.0 0.0 0.00 0.08 0.00 85
20260509070826 39 39 0.0 0.0 0.00 0.08 0.00 85
20260509070345 39 38 0.0 0.0 0.00 0.08 0.00 85
20260509065823 38 46 0.0 0.0 0.00 0.08 0.00 85
20260509065342 38 50 0.0 0.0 0.00 0.08 0.00 84
20260509064820 38 60 0.0 0.0 0.00 0.08 0.00 84
20260509064321 38 10 0.0 0.0 0.00 0.08 0.00 84
20260509063822 38 10 0.0 0.0 0.00 0.08 0.00 84
20260509063323 38 9 0.0 0.0 0.00 0.08 0.00 84
20260509062844 38 10 0.0 0.0 0.00 0.08 0.00 84
20260509062322 38 9 0.0 0.0 0.00 0.08 0.00 84
20260509061822 38 9 0.0 0.0 0.00 0.08 0.00 84
20260509061324 38 11 0.0 0.0 0.00 0.08 0.00 84
20260509060823 38 10 0.0 0.0 0.00 0.08 0.00 84
20260509060323 38 10 0.0 0.0 0.00 0.08 0.00 83
20260509055843 38 11 0.0 0.0 0.00 0.08 0.00 83
20260509055322 38 11 0.0 0.0 0.00 0.08 0.00 83
20260509054822 38 11 0.0 0.0 0.00 0.08 0.00 83
20260509054322 38 12 0.0 0.0 0.00 0.08 0.00 83
20260509053822 38 4 0.0 0.0 0.00 0.08 0.00 83
20260509053322 38 4 0.0 0.0 0.00 0.08 0.00 83
20260509052823 38 4 0.0 0.0 0.00 0.08 0.08 82
20260509052321 38 4 0.0 0.0 0.00 0.08 0.08 82
20260509051842 38 4 0.0 0.0 0.00 0.08 0.08 82
20260509051320 38 4 0.0 0.0 0.00 0.08 0.08 81
20260509050819 39 8 0.0 0.0 0.00 0.08 0.08 81
20260509050318 39 8 0.0 0.0 0.00 0.08 0.08 81
20260509045817 39 8 0.0 0.0 0.00 0.08 0.08 81
20260509045317 39 4 0.0 0.0 0.00 0.08 0.08 81
20260509044817 39 337 0.0 0.0 0.00 0.08 0.08 80
20260509044316 39 337 0.0 0.0 0.00 0.08 0.08 80
20260509043835 40 337 0.0 0.0 0.00 0.08 0.08 80
20260509043328 40 337 0.0 0.0 0.00 0.08 0.08 80
20260509042827 40 337 0.0 0.0 0.00 0.08 0.08 80
20260509042328 40 337 0.0 0.0 0.00 0.08 0.08 80
20260509041814 40 336 0.0 0.0 0.00 0.08 0.08 79
20260509041330 41 354 0.0 0.0 0.00 0.08 0.08 79
20260509040814 41 4 0.0 0.0 0.00 0.08 0.08 78
20260509040316 41 4 0.0 0.0 0.00 0.08 0.08 77
20260509035816 42 26 0.0 0.0 0.00 0.08 0.08 77
20260509035316 42 26 0.0 0.0 0.00 0.08 0.08 76
20260509034815 42 26 0.0 0.0 0.00 0.08 0.08 76
20260509034316 42 29 0.0 0.0 0.00 0.08 0.08 74
20260509033815 42 29 0.0 0.0 0.00 0.08 0.08 74
20260509033329 43 29 0.0 0.0 0.00 0.08 0.08 73
20260509032814 43 29 0.0 0.0 0.00 0.08 0.08 73
20260509032314 43 29 0.0 0.0 0.00 0.08 0.08 73
20260509031829 43 31 0.0 0.0 0.00 0.08 0.08 72
20260509031329 43 33 0.0 0.0 0.00 0.08 0.08 72
20260509030828 44 34 0.0 0.0 0.00 0.08 0.08 71
20260509030327 44 33 0.0 0.0 0.00 0.08 0.08 71
20260509025827 44 33 0.0 0.0 0.00 0.08 0.08 71
20260509025328 44 33 0.0 0.0 0.00 0.08 0.08 71
20260509024828 44 33 0.0 0.0 0.00 0.08 0.08 70
20260509024328 44 33 0.0 0.0 0.00 0.08 0.08 70
20260509023847 44 31 0.0 0.0 0.00 0.08 0.08 70
20260509023326 44 32 0.0 0.0 0.00 0.08 0.08 70
20260509022845 45 32 0.0 0.0 0.00 0.08 0.08 70
20260509022323 45 338 0.0 0.0 0.00 0.08 0.08 69
20260509021823 45 337 0.0 0.0 0.00 0.08 0.08 69
20260509021322 45 337 0.0 0.0 0.00 0.08 0.08 69
20260509020822 45 337 0.0 0.0 0.00 0.08 0.08 69
20260509020322 45 337 0.0 0.0 0.00 0.08 0.08 68